Regional Weather Roundup
Issued by NWS Little Rock, AR

Home | Current Version | Previous Version | Graphics & Text | Print | Product List | Glossary On
Versions: 1 2 3 4 5 6 7 8 9 10 11 12 13 14 15 16 17 18 19 20 21 22 23 24 25 26 27 28 29 30 31 32
000
ASUS44 KLZK 231505
RWRLZK

WEATHER ROUNDUP FOR ARKANSAS
NATIONAL WEATHER SERVICE LITTLE ROCK AR
1000 AM CDT THU MAR 23 2017

NOTE: "FAIR" INDICATES FEW OR NO CLOUDS BELOW 12,000 FEET WITH NO
SIGNIFICANT WEATHER AND/OR OBSTRUCTIONS TO VISIBILITY.

ARZ001-003-010-029-231600-
NORTHWEST ARKANSAS

CITY           SKY/WX    TMP DP  RH WIND       PRES   REMARKS
FAYETTEVILLE   CLOUDY    60  47  61 SE10      30.14S
FORT SMITH     CLOUDY    56  36  47 E15       30.16S
HARRISON       SUNNY     52  35  52 SE9       30.20S
BENTONVILLE    SUNNY     61  43  51 SE15      30.14F
ROGERS         SUNNY     60  41  49 SE16G23   30.14F
SILOAM SPGS    SUNNY     63  45  51 SE21      30.12S
HIGHFILL       SUNNY     60  42  51 SE16      30.13S
SPRINGDALE     MOSUNNY   59  43  55 S12G23    30.16S
$$

ARZ004-005-016-231600-
NORTH CENTRAL ARKANSAS

CITY           SKY/WX    TMP DP  RH WIND       PRES   REMARKS
BATESVILLE     CLOUDY    52  36  54 E5        30.27S
FLIPPIN        CLOUDY    52  30  43 SE7       30.20F
MTN HOME       MOSUNNY   52  31  44 SE9       30.22
$$

ARZ040-041-231600-
WEST CENTRAL ARKANSAS

CITY           SKY/WX    TMP DP  RH WIND       PRES   REMARKS
MENA           CLOUDY    55  46  71 E5        30.17S
MOUNT IDA      CLOUDY    57  42  57 E6        30.17
$$

ARZ009-017-025-026-028-231600-
NORTHEAST ARKANSAS

CITY           SKY/WX    TMP DP  RH WIND       PRES   REMARKS
CORNING        FAIR      52  32  46 SE5       30.30S
JONESBORO      PTSUNNY   54  33  45 E9        30.28R
NEWPORT        PTSUNNY   54  36  50 SE6       30.28R
WALNUT RIDGE   MOSUNNY   52  34  50 NE6       30.29R
BLYTHEVILLE    CLOUDY    54  34  46 VRB6      30.29S
$$

ARZ022-023-033-042-044-231600-
CENTRAL ARKANSAS

CITY           SKY/WX    TMP DP  RH WIND       PRES   REMARKS
LITTLE ROCK    MOSUNNY   59  39  47 SE9       30.23S
N LITTLE ROCK    N/A     58  39  49 SE9G18    30.24S
JACKSONVILLE   SUNNY     60  39  45 SE7       30.22S
CONWAY           N/A     59  37  44 SE6G14    30.21F
SEARCY         CLOUDY    57  36  45 E9        30.26F
HOT SPRINGS    CLOUDY    58  42  55 E7        30.21R
RUSSELLVILLE   PTSUNNY   55  35  47 VRB6      30.21F
CLINTON        PTSUNNY   55  36  47 SE7       30.24F
$$

ARZ036-231600-
EAST ARKANSAS

CITY           SKY/WX    TMP DP  RH WIND       PRES   REMARKS
WEST MEMPHIS   MOSUNNY   58  34  40 SE9       30.26S
$$

ARZ050-053-066-070-073-231600-
SOUTHWEST ARKANSAS

CITY           SKY/WX    TMP DP  RH WIND       PRES   REMARKS
ARKADELPHIA    FAIR      61  47  59 CALM      30.21R
CAMDEN         SUNNY     64  48  55 SE10      30.20R
TEXARKANA      CLOUDY    61  54  77 SE8       30.17S
EL DORADO      SUNNY     67  55  65 SE10      30.19S
DE QUEEN       CLOUDY    58  49  72 E7        30.15S
$$

ARZ056-057-069-231600-
SOUTHEAST ARKANSAS

CITY           SKY/WX    TMP DP  RH WIND       PRES   REMARKS
PINE BLUFF     CLOUDY    61  44  53 SE9       30.22S
STUTTGART      MOSUNNY   61  34  36 SE13      30.24S
MONTICELLO     SUNNY     65  46  50 SE9       30.22S

$$






USA.gov is the U.S. government's official web portal to all federal, state and local government web resources and services.